"Period start","avg(HW err(1)/warn(2) (#))","avg(Visibility (m))","avg(Weather code (#))","avg(Precip intensity (mm/h))","min(HW err(1)/warn(2) (#))","max(HW err(1)/warn(2) (#))","std(HW err(1)/warn(2) (#))","med(HW err(1)/warn(2) (#))","min(Visibility (m))","max(Visibility (m))","std(Visibility (m))","med(Visibility (m))","min(Weather code (#))","max(Weather code (#))","std(Weather code (#))","med(Weather code (#))","min(Precip intensity (mm/h))","max(Precip intensity (mm/h))","std(Precip intensity (mm/h))","med(Precip intensity (mm/h))"
2014-10-01 00:00:00,2,28293,0,0.00,2,2,0,2,24598,32468,1976,28346,0,0,0,0,0.00,0.00,0.00,0.00
2014-10-01 00:10:00,2,30425,0,0.00,2,2,0,2,24934,37755,3146,30398,0,0,0,0,0.00,0.00,0.00,0.00
2014-10-01 00:20:00,2,26856,0,0.00,2,2,0,2,22697,30785,2706,27912,0,0,0,0,0.00,0.00,0.00,0.00
2014-10-01 00:30:00,2,25720,0,0.00,2,2,0,2,20581,32907,3582,25420,0,0,0,0,0.00,0.00,0.00,0.00
2014-10-01 00:40:00,2,27452,0,0.00,2,2,0,2,22656,37499,3852,26600,0,0,0,0,0.00,0.00,0.00,0.00
2014-10-01 00:50:00,2,24747,0,0.00,2,2,0,2,21706,29119,2651,23423,0,0,0,0,0.00,0.00,0.00,0.00
2014-10-01 01:00:00,2,26408,0,0.00,2,2,0,2,23842,29690,1610,26079,0,0,0,0,0.00,0.00,0.00,0.00
2014-10-01 01:10:00,2,24830,0,0.00,2,2,0,2,23014,27284,1197,24747,0,0,0,0,0.00,0.00,0.00,0.00
2014-10-01 01:20:00,2,24998,0,0.00,2,2,0,2,22604,27263,1780,25050,0,0,0,0,0.00,0.00,0.00,0.00
2014-10-01 01:30:00,2,25642,0,0.00,2,2,0,2,22813,28864,2323,24580,0,0,0,0,0.00,0.00,0.00,0.00
2014-10-01 01:40:00,2,23478,0,0.00,2,2,0,2,20755,25493,1244,23542,0,0,0,0,0.00,0.00,0.00,0.00
2014-10-01 01:50:00,2,24357,0,0.00,2,2,0,2,19928,27957,2216,24600,0,0,0,0,0.00,0.00,0.00,0.00
2014-10-01 02:00:00,2,24637,0,0.00,2,2,0,2,21478,27621,1726,24858,0,0,0,0,0.00,0.00,0.00,0.00
2014-10-01 02:10:00,2,23807,0,0.00,2,2,0,2,21444,29253,2437,22862,0,0,0,0,0.00,0.00,0.00,0.00
2014-10-01 02:20:00,2,24409,0,0.00,2,2,0,2,20849,27494,2048,24146,0,0,0,0,0.00,0.00,0.00,0.00
2014-10-01 02:30:00,2,23577,0,0.00,2,2,0,2,20355,29526,2900,22808,0,0,0,0,0.00,0.00,0.00,0.00
2014-10-01 02:40:00,2,25796,0,0.00,2,2,0,2,21596,30064,2595,26787,0,0,0,0,0.00,0.00,0.00,0.00
2014-10-01 02:50:00,2,24222,0,0.00,2,2,0,2,19957,27518,2196,24796,0,0,0,0,0.00,0.00,0.00,0.00
2014-10-01 03:00:00,2,23727,0,0.00,2,2,0,2,20209,27748,2277,23998,0,0,0,0,0.00,0.00,0.00,0.00
2014-10-01 03:10:00,2,23392,0,0.00,2,2,0,2,20322,27886,2215,22869,0,0,0,0,0.00,0.00,0.00,0.00
2014-10-01 03:20:00,2,20940,0,0.00,2,2,0,2,18479,23907,1440,20739,0,0,0,0,0.00,0.00,0.00,0.00
2014-10-01 03:30:00,2,21050,0,0.00,2,2,0,2,18210,24475,1741,21007,0,0,0,0,0.00,0.00,0.00,0.00
2014-10-01 03:40:00,2,21716,0,0.00,2,2,0,2,20454,23617,1090,21528,0,0,0,0,0.00,0.00,0.00,0.00
2014-10-01 03:50:00,2,19370,0,0.00,2,2,0,2,17740,22288,1464,19156,0,0,0,0,0.00,0.00,0.00,0.00
2014-10-01 04:00:00,2,21073,0,0.00,2,2,0,2,18452,25034,1790,21018,0,0,0,0,0.00,0.00,0.00,0.00
2014-10-01 04:10:00,2,21042,0,0.00,2,2,0,2,17224,24867,2108,21114,0,0,0,0,0.00,0.00,0.00,0.00
2014-10-01 04:20:00,2,22073,0,0.00,2,2,0,2,19399,24961,1619,21714,0,0,0,0,0.00,0.00,0.00,0.00
2014-10-01 04:30:00,2,21893,0,0.00,2,2,0,2,18243,25978,2217,21286,0,0,0,0,0.00,0.00,0.00,0.00
2014-10-01 04:40:00,2,20587,0,0.00,2,2,0,2,18250,24874,1948,20358,0,0,0,0,0.00,0.00,0.00,0.00
2014-10-01 04:50:00,2,20278,0,0.00,2,2,0,2,16698,25659,2536,19761,0,0,0,0,0.00,0.00,0.00,0.00
2014-10-01 05:00:00,2,21356,0,0.00,2,2,0,2,18521,24889,1640,21240,0,0,0,0,0.00,0.00,0.00,0.00
2014-10-01 05:10:00,2,21238,0,0.00,2,2,0,2,19029,25864,2142,20514,0,0,0,0,0.00,0.00,0.00,0.00
2014-10-01 05:20:00,2,21900,0,0.00,2,2,0,2,18512,24019,1606,22248,0,0,0,0,0.00,0.00,0.00,0.00
2014-10-01 05:30:00,2,21864,0,0.00,2,2,0,2,19535,24476,1445,21847,0,0,0,0,0.00,0.00,0.00,0.00
2014-10-01 05:40:00,2,21315,0,0.00,2,2,0,2,17470,24475,2210,20690,0,0,0,0,0.00,0.00,0.00,0.00
2014-10-01 05:50:00,2,21271,0,0.00,2,2,0,2,18365,25220,2031,20628,0,0,0,0,0.00,0.00,0.00,0.00
2014-10-01 06:00:00,2,21490,0,0.00,2,2,0,2,19084,26411,2177,20814,0,0,0,0,0.00,0.00,0.00,0.00
2014-10-01 06:10:00,2,25288,0,0.00,2,2,0,2,19528,32019,3591,24608,0,0,0,0,0.00,0.00,0.00,0.00
2014-10-01 06:20:00,2,22072,0,0.00,2,2,0,2,20214,23960,1268,22567,0,0,0,0,0.00,0.00,0.00,0.00
2014-10-01 06:30:00,2,24773,0,0.00,2,2,0,2,19329,31029,3255,24545,0,0,0,0,0.00,0.00,0.00,0.00
2014-10-01 06:40:00,2,27273,0,0.00,2,2,0,2,23031,31568,2734,26812,0,0,0,0,0.00,0.00,0.00,0.00
2014-10-01 06:50:00,2,26585,0,0.00,2,2,0,2,23467,32375,2544,26374,0,0,0,0,0.00,0.00,0.00,0.00
2014-10-01 07:00:00,2,30223,0,0.00,2,2,0,2,25138,35004,3337,29787,0,0,0,0,0.00,0.00,0.00,0.00
2014-10-01 07:10:00,2,32006,0,0.00,2,2,0,2,23370,39122,4197,32378,0,0,0,0,0.00,0.00,0.00,0.00
2014-10-01 07:20:00,2,33818,0,0.00,2,2,0,2,29404,37247,2945,34430,0,0,0,0,0.00,0.00,0.00,0.00
2014-10-01 07:30:00,2,35875,0,0.00,2,2,0,2,26481,44245,4511,36055,0,0,0,0,0.00,0.00,0.00,0.00
2014-10-01 07:40:00,2,31917,0,0.00,2,2,0,2,24128,40031,5136,32310,0,0,0,0,0.00,0.00,0.00,0.00
2014-10-01 07:50:00,2,32154,0,0.00,2,2,0,2,23973,40912,5016,31084,0,0,0,0,0.00,0.00,0.00,0.00
2014-10-01 08:00:00,2,33156,0,0.00,2,2,0,2,25470,37268,3659,33786,0,0,0,0,0.00,0.00,0.00,0.00
2014-10-01 08:10:00,2,33377,0,0.00,2,2,0,2,29539,37677,2668,33194,0,0,0,0,0.00,0.00,0.00,0.00
2014-10-01 08:20:00,2,35514,0,0.00,2,2,0,2,28674,43438,3952,34531,0,0,0,0,0.00,0.00,0.00,0.00
2014-10-01 08:30:00,2,34377,0,0.00,2,2,0,2,30007,39223,3103,33176,0,0,0,0,0.00,0.00,0.00,0.00
2014-10-01 08:40:00,2,30944,0,0.00,2,2,0,2,24789,34622,3061,32029,0,0,0,0,0.00,0.00,0.00,0.00
2014-10-01 08:50:00,2,35436,0,0.00,2,2,0,2,30648,39347,3178,35750,0,0,0,0,0.00,0.00,0.00,0.00
2014-10-01 09:00:00,2,31963,0,0.00,2,2,0,2,28828,36303,2253,32167,0,0,0,0,0.00,0.00,0.00,0.00
2014-10-01 09:10:00,2,33635,0,0.00,2,2,0,2,29602,40650,3345,33231,0,0,0,0,0.00,0.00,0.00,0.00
2014-10-01 09:20:00,2,35178,0,0.00,2,2,0,2,29246,39785,2688,34897,0,0,0,0,0.00,0.00,0.00,0.00
2014-10-01 09:30:00,2,29844,0,0.00,2,2,0,2,26655,34703,2125,29690,0,0,0,0,0.00,0.00,0.00,0.00
2014-10-01 09:40:00,2,31425,0,0.00,2,2,0,2,26521,37398,3043,31420,0,0,0,0,0.00,0.00,0.00,0.00
2014-10-01 09:50:00,2,32867,0,0.00,2,2,0,2,29424,35055,2051,33724,0,0,0,0,0.00,0.00,0.00,0.00
2014-10-01 10:00:00,2,30426,0,0.00,2,2,0,2,27306,35010,2532,29689,0,0,0,0,0.00,0.00,0.00,0.00
2014-10-01 10:10:00,2,29779,0,0.00,2,2,0,2,26127,32933,2359,30431,0,0,0,0,0.00,0.00,0.00,0.00
2014-10-01 10:20:00,2,28527,0,0.00,2,2,0,2,24055,34342,2983,28160,0,0,0,0,0.00,0.00,0.00,0.00
2014-10-01 10:30:00,2,32778,0,0.00,2,2,0,2,29518,37486,2640,32574,0,0,0,0,0.00,0.00,0.00,0.00
2014-10-01 10:40:00,2,33092,0,0.00,2,2,0,2,28599,37028,3042,33270,0,0,0,0,0.00,0.00,0.00,0.00
2014-10-01 10:50:00,2,35361,0,0.00,2,2,0,2,32993,39334,2245,34567,0,0,0,0,0.00,0.00,0.00,0.00
2014-10-01 11:00:00,2,32754,0,0.00,2,2,0,2,28319,36967,2233,32360,0,0,0,0,0.00,0.00,0.00,0.00
2014-10-01 11:10:00,2,32573,0,0.00,2,2,0,2,25901,41624,5099,30355,0,0,0,0,0.00,0.00,0.00,0.00
2014-10-01 11:20:00,2,34621,0,0.00,2,2,0,2,32657,39345,1891,34215,0,0,0,0,0.00,0.00,0.00,0.00
2014-10-01 11:30:00,2,35296,0,0.00,2,2,0,2,31797,39797,2340,34824,0,0,0,0,0.00,0.00,0.00,0.00
2014-10-01 11:40:00,2,32752,0,0.00,2,2,0,2,30820,36901,1686,32326,0,0,0,0,0.00,0.00,0.00,0.00
2014-10-01 11:50:00,2,38337,0,0.00,2,2,0,2,32904,48103,4135,37976,0,0,0,0,0.00,0.00,0.00,0.00
2014-10-01 12:00:00,2,34691,0,0.00,2,2,0,2,30913,40154,2463,34416,0,0,0,0,0.00,0.00,0.00,0.00
2014-10-01 12:10:00,2,38027,0,0.00,2,2,0,2,29490,44965,4243,37524,0,0,0,0,0.00,0.00,0.00,0.00
2014-10-01 12:20:00,2,34909,0,0.00,2,2,0,2,31759,38262,2547,34683,0,0,0,0,0.00,0.00,0.00,0.00
2014-10-01 12:30:00,2,31447,0,0.00,2,2,0,2,28993,35927,2530,30560,0,0,0,0,0.00,0.00,0.00,0.00
2014-10-01 12:40:00,2,27339,0,0.00,2,2,0,2,23257,30844,2603,26888,0,0,0,0,0.00,0.00,0.00,0.00
2014-10-01 12:50:00,2,26318,0,0.00,2,2,0,2,22483,32652,2671,26302,0,0,0,0,0.00,0.00,0.00,0.00
2014-10-01 13:00:00,2,28350,0,0.00,2,2,0,2,22213,33262,3447,28377,0,0,0,0,0.00,0.00,0.00,0.00
2014-10-01 13:10:00,2,34418,0,0.00,2,2,0,2,30999,37931,2046,34332,0,0,0,0,0.00,0.00,0.00,0.00
2014-10-01 13:20:00,2,29528,0,0.00,2,2,0,2,25753,39563,3950,28130,0,0,0,0,0.00,0.00,0.00,0.00
2014-10-01 13:30:00,2,30679,0,0.00,2,2,0,2,28239,32337,1601,31214,0,0,0,0,0.00,0.00,0.00,0.00
2014-10-01 13:40:00,2,28998,0,0.00,2,2,0,2,23358,32729,3166,30617,0,0,0,0,0.00,0.00,0.00,0.00
2014-10-01 13:50:00,2,31687,0,0.00,2,2,0,2,27622,35794,2498,31584,0,0,0,0,0.00,0.00,0.00,0.00
2014-10-01 14:00:00,2,30106,0,0.00,2,2,0,2,26891,36728,2881,29878,0,0,0,0,0.00,0.00,0.00,0.00
2014-10-01 14:10:00,2,30445,0,0.00,2,2,0,2,25947,33632,2028,30686,0,0,0,0,0.00,0.00,0.00,0.00
2014-10-01 14:20:00,2,27481,0,0.00,2,2,0,2,23038,33742,3503,26271,0,0,0,0,0.00,0.00,0.00,0.00
2014-10-01 14:30:00,2,24287,0,0.00,2,2,0,2,22103,27276,1396,24203,0,0,0,0,0.00,0.00,0.00,0.00
2014-10-01 14:40:00,2,27498,0,0.00,2,2,0,2,24714,29473,1487,27912,0,0,0,0,0.00,0.00,0.00,0.00
2014-10-01 14:50:00,2,29434,0,0.00,2,2,0,2,26212,33038,2004,29752,0,0,0,0,0.00,0.00,0.00,0.00
2014-10-01 15:00:00,2,30651,0,0.00,2,2,0,2,26499,37912,3423,30208,0,0,0,0,0.00,0.00,0.00,0.00
2014-10-01 15:10:00,2,31140,0,0.00,2,2,0,2,26237,34158,2726,32226,0,0,0,0,0.00,0.00,0.00,0.00
2014-10-01 15:20:00,2,30005,0,0.00,2,2,0,2,27686,33994,1782,29640,0,0,0,0,0.00,0.00,0.00,0.00
2014-10-01 15:30:00,2,30113,0,0.00,2,2,0,2,27085,34370,2070,29873,0,0,0,0,0.00,0.00,0.00,0.00
2014-10-01 15:40:00,2,29772,0,0.00,2,2,0,2,25322,36404,3169,29904,0,0,0,0,0.00,0.00,0.00,0.00
2014-10-01 15:50:00,2,29266,0,0.00,2,2,0,2,26593,30945,1293,29190,0,0,0,0,0.00,0.00,0.00,0.00
2014-10-01 16:00:00,2,30708,0,0.00,2,2,0,2,26032,35747,3140,29770,0,0,0,0,0.00,0.00,0.00,0.00
2014-10-01 16:10:00,2,28985,0,0.00,2,2,0,2,26055,32425,1897,28508,0,0,0,0,0.00,0.00,0.00,0.00
2014-10-01 16:20:00,2,27647,0,0.00,2,2,0,2,24737,32008,2424,27078,0,0,0,0,0.00,0.00,0.00,0.00
2014-10-01 16:30:00,2,26885,0,0.00,2,2,0,2,23602,30541,2018,26214,0,0,0,0,0.00,0.00,0.00,0.00
2014-10-01 16:40:00,2,28082,0,0.00,2,2,0,2,25073,31284,1962,27377,0,0,0,0,0.00,0.00,0.00,0.00
2014-10-01 16:50:00,2,32394,0,0.00,2,2,0,2,27285,43379,4698,29916,0,0,0,0,0.00,0.00,0.00,0.00
2014-10-01 17:00:00,2,28289,0,0.00,2,2,0,2,25391,32547,2110,28155,0,0,0,0,0.00,0.00,0.00,0.00
2014-10-01 17:10:00,2,29795,0,0.00,2,2,0,2,25829,35634,3354,29100,0,0,0,0,0.00,0.00,0.00,0.00
2014-10-01 17:20:00,2,27999,0,0.00,2,2,0,2,23939,32975,2762,27639,0,0,0,0,0.00,0.00,0.00,0.00
2014-10-01 17:30:00,2,29889,0,0.00,2,2,0,2,27308,32318,1639,29998,0,0,0,0,0.00,0.00,0.00,0.00
2014-10-01 17:40:00,2,27834,0,0.00,2,2,0,2,24925,31876,2421,27160,0,0,0,0,0.00,0.00,0.00,0.00
2014-10-01 17:50:00,2,28921,0,0.00,2,2,0,2,26044,33215,2160,28882,0,0,0,0,0.00,0.00,0.00,0.00
2014-10-01 18:00:00,2,29371,0,0.00,2,2,0,2,25370,33885,2469,28726,0,0,0,0,0.00,0.00,0.00,0.00
2014-10-01 18:10:00,2,28345,0,0.00,2,2,0,2,24055,32293,2669,28228,0,0,0,0,0.00,0.00,0.00,0.00
2014-10-01 18:20:00,2,26690,0,0.00,2,2,0,2,24830,30619,1914,25905,0,0,0,0,0.00,0.00,0.00,0.00
2014-10-01 18:30:00,2,28261,0,0.00,2,2,0,2,24351,33686,3138,26910,0,0,0,0,0.00,0.00,0.00,0.00
2014-10-01 18:40:00,2,31759,0,0.00,2,2,0,2,28925,34456,2096,32069,0,0,0,0,0.00,0.00,0.00,0.00
2014-10-01 18:50:00,2,32309,0,0.00,2,2,0,2,29017,36570,2558,31740,0,0,0,0,0.00,0.00,0.00,0.00
2014-10-01 19:00:00,2,30322,0,0.00,2,2,0,2,27146,34812,2486,29599,0,0,0,0,0.00,0.00,0.00,0.00
2014-10-01 19:10:00,2,24786,0,0.00,2,2,0,2,20805,27249,2019,25151,0,0,0,0,0.00,0.00,0.00,0.00
2014-10-01 19:20:00,2,31638,0,0.00,2,2,0,2,23910,38749,4775,31165,0,0,0,0,0.00,0.00,0.00,0.00
2014-10-01 19:30:00,2,31404,0,0.00,2,2,0,2,25074,36459,3167,31682,0,0,0,0,0.00,0.00,0.00,0.00
2014-10-01 19:40:00,2,31421,0,0.00,2,2,0,2,26404,38104,3654,32046,0,0,0,0,0.00,0.00,0.00,0.00
2014-10-01 19:50:00,2,29631,0,0.00,2,2,0,2,25143,34588,2936,30510,0,0,0,0,0.00,0.00,0.00,0.00
2014-10-01 20:00:00,2,29551,0,0.00,2,2,0,2,26150,33376,2403,29924,0,0,0,0,0.00,0.00,0.00,0.00
2014-10-01 20:10:00,2,32975,0,0.00,2,2,0,2,28984,37682,2914,32298,0,0,0,0,0.00,0.00,0.00,0.00
2014-10-01 20:20:00,2,34353,0,0.00,2,2,0,2,30632,39422,3207,33528,0,0,0,0,0.00,0.00,0.00,0.00
2014-10-01 20:30:00,2,30368,0,0.00,2,2,0,2,26276,32738,1881,30784,0,0,0,0,0.00,0.00,0.00,0.00
2014-10-01 20:40:00,2,31089,0,0.00,2,2,0,2,28982,34276,1583,31088,0,0,0,0,0.00,0.00,0.00,0.00
2014-10-01 20:50:00,2,29610,0,0.00,2,2,0,2,23143,35799,4664,29729,0,0,0,0,0.00,0.00,0.00,0.00
2014-10-01 21:00:00,2,31870,0,0.00,2,2,0,2,28700,36703,2578,31508,0,0,0,0,0.00,0.00,0.00,0.00
2014-10-01 21:10:00,2,29956,0,0.00,2,2,0,2,25508,32966,2527,29384,0,0,0,0,0.00,0.00,0.00,0.00
2014-10-01 21:20:00,2,26812,0,0.00,2,2,0,2,24060,29162,1349,26982,0,0,0,0,0.00,0.00,0.00,0.00
2014-10-01 21:30:00,2,32135,0,0.00,2,2,0,2,24050,39789,4553,32073,0,0,0,0,0.00,0.00,0.00,0.00
2014-10-01 21:40:00,2,27532,0,0.00,2,2,0,2,24009,32759,2904,26760,0,0,0,0,0.00,0.00,0.00,0.00
2014-10-01 21:50:00,2,27510,0,0.00,2,2,0,2,25235,32845,2380,26757,0,0,0,0,0.00,0.00,0.00,0.00
2014-10-01 22:00:00,2,24853,0,0.00,2,2,0,2,22169,27632,1492,24907,0,0,0,0,0.00,0.00,0.00,0.00
2014-10-01 22:10:00,2,27062,0,0.00,2,2,0,2,21060,30532,3351,28872,0,0,0,0,0.00,0.00,0.00,0.00
2014-10-01 22:20:00,2,27488,0,0.00,2,2,0,2,25322,31439,2091,27118,0,0,0,0,0.00,0.00,0.00,0.00
2014-10-01 22:30:00,2,28684,0,0.00,2,2,0,2,25930,32461,1793,28920,0,0,0,0,0.00,0.00,0.00,0.00
2014-10-01 22:40:00,2,27337,0,0.00,2,2,0,2,24393,34119,2978,26627,0,0,0,0,0.00,0.00,0.00,0.00
2014-10-01 22:50:00,2,29866,0,0.00,2,2,0,2,23466,33571,2932,30724,0,0,0,0,0.00,0.00,0.00,0.00
2014-10-01 23:00:00,2,33295,0,0.00,2,2,0,2,26577,44104,5195,33413,0,0,0,0,0.00,0.00,0.00,0.00
2014-10-01 23:10:00,2,34165,0,0.00,2,2,0,2,27497,44477,5709,32952,0,0,0,0,0.00,0.00,0.00,0.00
2014-10-01 23:20:00,2,32696,0,0.00,2,2,0,2,24307,42835,5898,32514,0,0,0,0,0.00,0.00,0.00,0.00
2014-10-01 23:30:00,2,26841,0,0.00,2,2,0,2,20908,37505,4752,26454,0,0,0,0,0.00,0.00,0.00,0.00
2014-10-01 23:40:00,2,25689,0,0.00,2,2,0,2,16759,37010,5424,24020,0,0,0,0,0.00,0.00,0.00,0.00
2014-10-01 23:50:00,2,21625,0,0.00,2,2,0,2,17618,27913,3216,20994,0,0,0,0,0.00,0.00,0.00,0.00
